Lake Burton Weather Center

Moon Phase Calendar



Lake Burton Water Level
Online Cameras

 


      

Current Conditions in Clayton
4/21/2024 2:35:00 PM

51°F
Feels Like 51
Rain
Humidity
93%
Pressure
30"
Wind
4.1 mph (NW)
Dew Point
49°F
UV Index
3/10 (Moderate)
Visibility
6 mi

Hourly Forecast

Date & Time Sun, Apr 21
2:00 PM
Sun, Apr 21
3:00 PM
Sun, Apr 21
4:00 PM
Sun, Apr 21
5:00 PM
Sun, Apr 21
6:00 PM
Sun, Apr 21
7:00 PM
Sun, Apr 21
8:00 PM
Sun, Apr 21
9:00 PM
Sun, Apr 21
10:00 PM
Sun, Apr 21
11:00 PM
Mon, Apr 22
12:00 AM
Mon, Apr 22
1:00 AM
Mon, Apr 22
2:00 AM
Mon, Apr 22
3:00 AM
Mon, Apr 22
4:00 AM
Mon, Apr 22
5:00 AM
Mon, Apr 22
6:00 AM
Mon, Apr 22
7:00 AM
Mon, Apr 22
8:00 AM
Mon, Apr 22
9:00 AM
Mon, Apr 22
10:00 AM
Mon, Apr 22
11:00 AM
Mon, Apr 22
12:00 PM
Mon, Apr 22
1:00 PM
Mon, Apr 22
2:00 PM
Mon, Apr 22
3:00 PM
Mon, Apr 22
4:00 PM
Mon, Apr 22
5:00 PM
Mon, Apr 22
6:00 PM
Mon, Apr 22
7:00 PM
Mon, Apr 22
8:00 PM
Mon, Apr 22
9:00 PM
Mon, Apr 22
10:00 PM
Mon, Apr 22
11:00 PM
Tue, Apr 23
12:00 AM
Tue, Apr 23
1:00 AM
Tue, Apr 23
2:00 AM
Tue, Apr 23
3:00 AM
Tue, Apr 23
4:00 AM
Tue, Apr 23
5:00 AM
Tue, Apr 23
6:00 AM
Tue, Apr 23
7:00 AM
Tue, Apr 23
8:00 AM
Tue, Apr 23
9:00 AM
Tue, Apr 23
10:00 AM
Tue, Apr 23
11:00 AM
Tue, Apr 23
12:00 PM
Tue, Apr 23
1:00 PM
Condition
Rain

Clouds

Clouds

Clouds

Clouds

Clouds

Clouds

Clouds

Clouds

Clouds

Clouds

Clouds

Clouds

Clouds

Clouds

Clouds

Clouds

Clouds

Clouds

Clouds

Clouds

Clouds

Clouds

Clouds

Clear

Clear

Clear

Clear

Clear

Clear

Clear

Clear

Clear

Clear

Clouds

Clouds

Clouds

Clear

Clear

Clear

Clouds

Clouds

Clouds

Clouds

Clouds

Clouds

Clouds

Clouds
Temperature 51°F51°F51°F52°F54°F54°F50°F45°F44°F44°F44°F42°F42°F41°F41°F40°F39°F38°F41°F45°F50°F54°F58°F61°F63°F64°F64°F63°F62°F59°F51°F46°F45°F45°F44°F44°F44°F43°F43°F42°F42°F41°F46°F53°F58°F61°F63°F65°F
Feels Like 50°F51°F50°F51°F53°F53°F47°F42°F41°F41°F42°F40°F39°F39°F38°F37°F35°F35°F38°F44°F48°F52°F55°F58°F60°F62°F61°F61°F59°F56°F48°F45°F44°F43°F43°F44°F44°F43°F43°F42°F42°F41°F46°F51°F55°F58°F61°F63°F
Cloudiness 100%100%100%100%98%86%72%23%24%42%56%63%64%69%71%72%73%75%75%50%31%22%15%11%10%1%1%1%1%1%0%0%0%7%24%20%17%2%3%9%23%21%20%17%18%22%27%35%
Visibility 6 mi6 mi6 mi6 mi6 mi6 mi6 mi6 mi6 mi6 mi6 mi6 mi6 mi6 mi6 mi6 mi6 mi6 mi6 mi6 mi6 mi6 mi6 mi6 mi6 mi6 mi6 mi6 mi6 mi6 mi6 mi6 mi6 mi6 mi6 mi6 mi6 mi6 mi6 mi6 mi6 mi6 mi6 mi6 mi6 mi6 mi6 mi6 mi
Precipitation 100%80%80%80%80%88%73%0%0%0%0%0%0%0%0%0%0%0%0%0%0%0%0%0%0%0%0%0%0%0%0%0%0%0%0%0%0%0%0%0%0%0%0%0%0%0%0%0%
Humidity 94%93%92%85%70%62%64%72%71%71%68%71%73%75%79%80%83%83%74%61%49%42%36%33%31%29%28%28%30%46%64%73%76%78%80%82%83%83%83%84%85%86%74%59%45%37%32%30%
Dew Point 49°F49°F49°F48°F45°F42°F36°F35°F35°F34°F33°F32°F32°F33°F33°F33°F33°F32°F32°F31°F31°F31°F30°F30°F31°F30°F29°F29°F30°F37°F38°F37°F37°F37°F37°F38°F38°F37°F37°F37°F36°F36°F37°F38°F35°F33°F32°F32°F
Pressure 30"30"30"29.97"29.94"29.94"29.97"30.03"30.06"30.09"30.09"30.09"30.09"30.09"30.09"30.12"30.15"30.15"30.18"30.18"30.18"30.15"30.15"30.12"30.09"30.09"30.06"30.06"30.06"30.09"30.15"30.18"30.21"30.21"30.21"30.21"30.21"30.21"30.21"30.21"30.24"30.24"30.24"30.21"30.18"30.18"30.18"30.15"
Wind Speed 3.6 mph4.1 mph3.6 mph4.7 mph6.1 mph7 mph5.5 mph6 mph5.8 mph4.3 mph4.3 mph4.4 mph4.2 mph4.3 mph4.5 mph4.6 mph4.7 mph4.6 mph4.3 mph3.4 mph2.9 mph2.6 mph2.7 mph3.2 mph3.1 mph2.8 mph3.3 mph4.7 mph6 mph4.2 mph2.2 mph3.1 mph3.4 mph3.2 mph3.2 mph3 mph2.6 mph2.4 mph2.3 mph2 mph2 mph2.5 mph2.1 mph2.3 mph3.2 mph4.6 mph6.2 mph7.4 mph
Wind
Direction
333°
NNW
315°
NW
327°
NNW
303°
WNW
303°
WNW
300°
WNW
311°
NW
336°
NNW
345°
NNW
342°
NNW
340°
NNW
339°
NNW
337°
NNW
334°
NNW
340°
NNW
353°
N
358°
N

N
355°
N
357°
N
350°
N
328°
NNW
320°
NW
333°
NNW
335°
NNW
335°
NNW
321°
NW
322°
NW
326°
NW
331°
NNW
22°
NNE
25°
NNE

N
12°
NNE
22°
NNE
20°
NNE
29°
NNE
11°
N
14°
NNE
13°
NNE

N
347°
NNW
326°
NW
267°
W
250°
WSW
245°
WSW
234°
SW
235°
SW

Daily Forecast

Date High Low Precip. Humidity
Today
Apr 21

Rain
55 °F
44 °F
100%
95%
Monday
Apr 22

Clouds
64 °F
38 °F
0%
33%
Tuesday
Apr 23

Clouds
68 °F
41 °F
0%
30%
Wednesday
Apr 24

Clouds
64 °F
47 °F
0%
66%
Thursday
Apr 25

Rain
55 °F
52 °F
100%
97%
Friday
Apr 26

Rain
55 °F
50 °F
100%
96%
Saturday
Apr 27

Rain
59 °F
53 °F
20%
90%
Sunday
Apr 28

Rain
68 °F
59 °F
100%
80%
Monday
Apr 29

Rain
67 °F
58 °F
100%
75%
Tuesday
Apr 30

Rain
72 °F
60 °F
99%
61%
Wednesday
May 1

Rain
81 °F
58 °F
37%
40%
Thursday
May 2

Clouds
80 °F
57 °F
18%
39%
Friday
May 3

Clouds
78 °F
53 °F
0%
30%
Saturday
May 4

Rain
77 °F
58 °F
100%
50%
Sunday
May 5

Rain
82 °F
61 °F
100%
41%
Monday
May 6

Rain
80 °F
61 °F
100%
52%

Temperature 8-14 Day Outlook



Precipitation 8-14 Day Outlook




Quick Links
Lake Burton News
Lake Burton Photos
Lake Burton Videos




About Us
Contact Us
Site Map
Search Site
Advertise With Us
   
Burton.USLakes.info
THE LAKE BURTON WEBSITE

Copyright 2024, Lakes Online
Privacy    |    Legal